Flag Island, MN

12:52 AM CST on December 17, 2017 (GMT -0600)
Flag Island

Weather History for KFGN - March, 2013

Change the Weather History Date:

Thursday, March 7, 2013

  Actual Average Record
Temperature  
Mean Temperature 12 °F -  
Max Temperature 28 °F 18 °F 46 °F (2016)
Min Temperature -5 °F 1 °F -27 °F (2008)
Degree Days  
Heating Degree Days 54    
Moisture  
Dew Point 6 °F    
Average Humidity 76    
Maximum Humidity 93    
Minimum Humidity 55    
Precipitation  
Precipitation 0.00 in - - ()
Sea Level Pressure  
Sea Level Pressure 30.29 in    
Wind  
Wind Speed 3 mph (SE)    
Max Wind Speed 12 mph    
Max Gust Speed 16 mph    
Visibility 10 miles    
Events Snow    
Averages and records for this station are not official NWS values.
T = Trace of Precipitation, MM = Missing Value Source: NWS Daily Summary

Daily Weather History Graph

Daily Weather History Graph

Search for Another Location

Airport or City:

Trip Planner

Search our weather history database for the weather conditions in past years. The results will help you decide how hot, cold, wet, or windy it might be!

Date:

Astronomy

Mar. 07, 2013 Rise Set
Actual Time 6:49 AM CST 6:12 PM CST
Civil Twilight 6:17 AM CST 6:44 PM CST
Nautical Twilight 5:40 AM CST 7:21 PM CST
Astronomical Twilight 5:03 AM CST 7:58 PM CST
Moon 4:09 AM CST (3/7) 1:43 PM CST (3/7)
Length of Visible Light 12h 27m
Length of Day
11h 23m
Waning Crescent, 20% of the Moon is Illuminated
Mar 7
Waning Crescent
Mar 11
New
Mar 19
First Quarter
Mar 27
Full
Apr 2
Last Quarter

Hourly Weather History & Observations

Time (CST) Temp. Windchill Dew Point Humidity Pressure Visibility Wind Dir Wind Speed Gust Speed Precip Events Conditions
12:13 AM -2.2 °F - -5.8 °F 85% 30.33 in 1.8 mi Calm Calm - N/A   Mist
12:33 AM 3.2 °F - 1.4 °F 92% 30.32 in 10.0 mi Calm Calm - N/A   Clear
12:54 AM -2.2 °F -10.4 °F -5.8 °F 85% 30.32 in 10.0 mi WSW 3.5 mph - N/A   Clear
1:13 AM -0.4 °F -8.3 °F -5.8 °F 78% 30.33 in 10.0 mi WSW 3.5 mph - N/A   Clear
1:33 AM -2.2 °F - -7.6 °F 78% 30.33 in 10.0 mi Calm Calm - N/A   Clear
1:54 AM -2.2 °F - -7.6 °F 78% 30.34 in 10.0 mi Calm Calm - N/A   Clear
2:13 AM 1.4 °F - -2.2 °F 85% 30.34 in 10.0 mi Calm Calm - N/A   Clear
2:33 AM -0.4 °F - -5.8 °F 78% 30.34 in 10.0 mi Calm Calm - N/A   Clear
2:54 AM -0.4 °F - -4.0 °F 85% 30.35 in 10.0 mi Calm Calm - N/A   Clear
3:13 AM 1.4 °F - -2.2 °F 85% 30.35 in 10.0 mi Calm Calm - N/A   Clear
3:33 AM 1.4 °F - -2.2 °F 85% 30.34 in 10.0 mi Calm Calm - N/A   Clear
3:54 AM -0.4 °F - -5.8 °F 78% 30.34 in 10.0 mi Calm Calm - N/A   Clear
4:13 AM 1.4 °F - -2.2 °F 85% 30.33 in 10.0 mi Calm Calm - N/A   Clear
4:33 AM -0.4 °F - -2.2 °F 92% 30.33 in 10.0 mi Calm Calm - N/A   Clear
4:54 AM -2.2 °F - -5.8 °F 85% 30.33 in 10.0 mi Calm Calm - N/A   Clear
5:13 AM -4.0 °F - -7.6 °F 85% 30.33 in 10.0 mi Calm Calm - N/A   Clear
5:33 AM -2.2 °F - -5.8 °F 85% 30.33 in 10.0 mi Calm Calm - N/A   Clear
5:54 AM -5.8 °F - -9.4 °F 84% 30.34 in 10.0 mi Calm Calm - N/A   Clear
6:13 AM -5.8 °F - -9.4 °F 84% 30.34 in 10.0 mi Calm Calm - N/A   Clear
6:33 AM -2.2 °F - -5.8 °F 85% 30.34 in 10.0 mi Calm Calm - N/A   Clear
6:54 AM -2.2 °F - -5.8 °F 85% 30.34 in 10.0 mi Calm Calm - N/A   Clear
7:14 AM -2.2 °F - -7.6 °F 78% 30.34 in 10.0 mi Calm Calm - N/A   Clear
7:33 AM -2.2 °F - -7.6 °F 78% 30.33 in 10.0 mi Calm Calm - N/A   Clear
7:54 AM -0.4 °F - -4.0 °F 85% 30.33 in 10.0 mi Calm Calm - N/A   Clear
8:13 AM -0.4 °F - -2.2 °F 92% 30.33 in 10.0 mi Calm Calm - N/A   Clear
8:33 AM 3.2 °F - -0.4 °F 85% 30.34 in 10.0 mi Calm Calm - N/A Snow Light Snow
9:13 AM 1.4 °F - -2.2 °F 85% 30.34 in 10.0 mi Calm Calm - N/A   Clear
9:34 AM 3.2 °F - -0.4 °F 85% 30.34 in 10.0 mi Calm Calm - N/A   Clear
9:53 AM 5.0 °F - 1.4 °F 85% 30.34 in 10.0 mi Calm Calm - N/A   Clear
10:13 AM 8.6 °F 0.1 °F 6.8 °F 92% 30.34 in 10.0 mi South 4.6 mph - N/A   Clear
10:34 AM 8.6 °F - 6.8 °F 92% 30.33 in 10.0 mi Calm Calm - N/A   Clear
10:53 AM 10.4 °F - 8.6 °F 92% 30.34 in 10.0 mi Calm Calm - N/A   Clear
11:13 AM 12.2 °F 6.1 °F 10.4 °F 92% 30.33 in 10.0 mi SSE 3.5 mph - N/A   Clear
11:34 AM 15.8 °F 10.2 °F 12.2 °F 86% 30.33 in 10.0 mi South 3.5 mph - N/A   Clear
11:53 AM 19.4 °F 9.5 °F 17.6 °F 93% 30.32 in 10.0 mi SSE 8.1 mph - N/A   Clear
12:13 PM 19.4 °F 9.5 °F 17.6 °F 93% 30.32 in 10.0 mi SSE 8.1 mph - N/A   Clear
12:34 PM 19.4 °F 8.6 °F 17.6 °F 93% 30.31 in 10.0 mi SSE 9.2 mph - N/A   Clear
12:53 PM 21.2 °F 12.6 °F 15.8 °F 80% 30.30 in 10.0 mi SSE 6.9 mph - N/A   Clear
1:13 PM 23.0 °F 15.8 °F 15.8 °F 74% 30.29 in 10.0 mi SE 5.8 mph - N/A   Clear
1:34 PM 24.8 °F 15.3 °F 14.0 °F 64% 30.28 in 10.0 mi ESE 9.2 mph - N/A   Clear
1:53 PM 26.6 °F 17.5 °F 15.8 °F 64% 30.28 in 10.0 mi ESE 9.2 mph - N/A   Clear
2:14 PM 26.6 °F 18.2 °F 14.0 °F 59% 30.27 in 10.0 mi ESE 8.1 mph - N/A   Clear
2:34 PM 26.6 °F 18.2 °F 14.0 °F 59% 30.27 in 10.0 mi ESE 8.1 mph - N/A   Clear
2:53 PM 26.6 °F 19.1 °F 15.8 °F 64% 30.27 in 10.0 mi ESE 6.9 mph - N/A   Clear
3:14 PM 26.6 °F 18.2 °F 15.8 °F 64% 30.26 in 10.0 mi ESE 8.1 mph - N/A   Clear
3:33 PM 28.4 °F 20.4 °F 14.0 °F 55% 30.26 in 10.0 mi ESE 8.1 mph - N/A   Clear
3:54 PM 28.4 °F 21.2 °F 15.8 °F 59% 30.25 in 10.0 mi ESE 6.9 mph - N/A   Clear
4:13 PM 28.4 °F 20.4 °F 15.8 °F 59% 30.24 in 10.0 mi ESE 8.1 mph - N/A   Clear
4:33 PM 28.4 °F 22.2 °F 15.8 °F 59% 30.23 in 10.0 mi East 5.8 mph - N/A   Clear
4:54 PM 26.6 °F 19.1 °F 15.8 °F 64% 30.22 in 10.0 mi ESE 6.9 mph - N/A   Clear
5:13 PM 26.6 °F 19.1 °F 15.8 °F 64% 30.22 in 10.0 mi ESE 6.9 mph - N/A   Clear
5:34 PM 26.6 °F 17.5 °F 15.8 °F 64% 30.22 in 10.0 mi ESE 9.2 mph - N/A   Clear
5:53 PM 26.6 °F 19.1 °F 15.8 °F 64% 30.23 in 10.0 mi ESE 6.9 mph - N/A   Clear
7:34 PM 26.6 °F 16.8 °F 15.8 °F 64% 30.21 in 10.0 mi ESE 10.4 mph - N/A   Overcast
7:53 PM 26.6 °F 16.8 °F 15.8 °F 64% 30.20 in 10.0 mi ESE 10.4 mph 16.1 mph N/A   Overcast
8:13 PM 26.6 °F 16.2 °F 15.8 °F 64% 30.20 in 10.0 mi ESE 11.5 mph - N/A   Overcast
8:34 PM 26.6 °F 16.8 °F 15.8 °F 64% 30.19 in 10.0 mi ESE 10.4 mph - N/A   Overcast
8:53 PM 26.6 °F 19.1 °F 15.8 °F 64% 30.20 in 10.0 mi ESE 6.9 mph - N/A   Overcast
9:13 PM 26.6 °F 18.2 °F 15.8 °F 64% 30.19 in 10.0 mi ESE 8.1 mph - N/A   Overcast
9:34 PM 26.6 °F 17.5 °F 15.8 °F 64% 30.19 in 10.0 mi SE 9.2 mph - N/A   Overcast
9:54 PM 26.6 °F 19.1 °F 15.8 °F 64% 30.20 in 10.0 mi SE 6.9 mph - N/A   Overcast
10:13 PM 26.6 °F 19.1 °F 15.8 °F 64% 30.19 in 10.0 mi SE 6.9 mph - N/A   Overcast
10:34 PM 26.6 °F 19.1 °F 17.6 °F 69% 30.19 in 10.0 mi SE 6.9 mph - N/A   Overcast
10:53 PM 26.6 °F 18.2 °F 17.6 °F 69% 30.18 in 10.0 mi SE 8.1 mph - N/A   Overcast
11:13 PM 26.6 °F 16.8 °F 17.6 °F 69% 30.18 in 10.0 mi SE 10.4 mph - N/A   Mostly Cloudy
11:34 PM 26.6 °F 16.2 °F 17.6 °F 69% 30.18 in 10.0 mi SE 11.5 mph - N/A   Overcast